Regional Weather Roundup
Issued by NWS Charleston, SC

Current Version | Previous Version | Graphics & Text | Print | Product List | Glossary On
Versions: 1 2 3 4 5 6 7 8 9 10 11 12 13 14 15 16 17 18 19 20 21 22 23 24 25 26 27 28 29 30 31 32 33 34 35 36 37 38 39 40 41 42 43 44 45 46 47 48 49 50
000
ASUS42 KCHS 270111
RWRCHS

REGIONAL WEATHER ROUNDUP
NATIONAL WEATHER SERVICE CHARLESTON SC
800 PM EST THU FEB 26 2015

NOTE: "FAIR" INDICATES FEW OR NO CLOUDS BELOW 12,000 FEET WITH NO
SIGNIFICANT WEATHER AND/OR OBSTRUCTIONS TO VISIBILITY.

NOT ALL STATIONS ARE QUALITY CONTROLLED BY THE NATIONAL
WEATHER SERVICE. USE DATA WITH CAUTION...ESPECIALLY
DEWPOINT OBSERVATIONS.

SCZ027-030-031-034>040-042>050-270200-
...SOUTHEAST SOUTH CAROLINA...

CITY           SKY/WX    TMP DP  RH WIND       PRES   REMARKS
N CHARLESTON   CLOUDY    41  36  82 N6        30.10R
WATERFRONT PRK   N/A     43 N/A N/A N10G16      N/A
MOUNT PLEASANT LGT RAIN  41  36  81 NW5       30.10R
PINOPOLIS        N/A     43  36  75 N8        30.01R
MONCKS CORNER  CLOUDY    43  36  75 N5        30.10R
SUMMERVILLE    NOT AVBL
BEAUFORT MCAS  CLOUDY    44  38  79 N7        30.10R
BEAUFORT ARPT  CLOUDY    45  41  87 CALM      30.10R
HILTON HEAD IS CLOUDY    46  39  76 N8        30.11R
WALTERBORO     CLOUDY    43  39  87 CALM      30.11R
ALLENDALE      CLOUDY    45  41  87 CALM      30.09R

...SOUTHERN MIDLANDS AND PEE DEE...

CITY           SKY/WX    TMP DP  RH WIND       PRES   REMARKS
GEORGETOWN     NOT AVBL
KINGSTREE      NOT AVBL
ORANGEBURG     CLOUDY    42  35  76 CALM      30.09R
BARNWELL       CLOUDY    45  39  81 E3        30.09R
AIKEN          CLOUDY    43  37  81 E3        30.09R
MANNING        CLOUDY    41  41 100 CALM      30.10R
COLUMBIA       MOCLDY    40  35  83 E6        30.08R WCI  36
SUMTER         NOT AVBL
FLORENCE       CLOUDY    39  32  76 N8        30.09R WCI  33
MYRTLE BEACH   CLOUDY    39  34  81 N12       30.11R WCI  32
N MYRTLE BEACH CLOUDY    39  33  79 NW3       30.09R

$$

GAZ063-065-086>088-099>101-113>116-118-119-134>141-150-270200-
...SOUTHEAST GEORGIA...

CITY           SKY/WX    TMP DP  RH WIND       PRES   REMARKS
SAVANNAH ARPT  CLOUDY    47  38  71 N6        30.10R
HUNTER AAF     NOT AVBL
FORT STEWART   NOT AVBL
STATESBORO     CLOUDY    45  40  83 CALM      30.09R
SYLVANIA       CLOUDY    44  41  87 CALM      30.10R
CLAXTON        CLOUDY    45  39  81 CALM      30.09R

...CSRA...CENTRAL AND FAR SOUTHEAST GEORGIA...

CITY           SKY/WX    TMP DP  RH WIND       PRES   REMARKS
THOMSON        CLOUDY    44  43  97 CALM      30.12R
AUGUSTA-BUSH   CLOUDY    45  36  70 W7        30.08R
AUGUSTA-DANIEL CLOUDY    46  35  65 NW3       30.07R
SWAINSBORO     CLOUDY    46  36  66 CALM      30.09R
VIDALIA        CLOUDY    45  41  87 NE3       30.09R
EASTMAN        CLOUDY    46  44  90 CALM      30.10R
HAZLEHURST     CLOUDY    46  44  93 CALM      30.07R
ALMA             N/A     46  38  73 CALM      30.08R
WAYCROSS       CLOUDY    50  43  78 CALM      30.10R
JESUP          CLOUDY    50  43  76 CALM      30.10R
BAXLEY         MOCLDY    45  41  87 CALM      30.07R
BRUNSWICK      CLOUDY    48  39  71 NW3       30.10R
SAINT SIMONS   CLOUDY    48  38  68 N6        30.09R

$$

SCZ027-028-034-036>038-045-046-048>050-GAZ119-141-270200-
...LAKE AND SUPPLEMENTAL COASTAL OBSERVATIONS...

STATION/POSITION TIME  TEMP    WIND        PRES    WAVE   SWELL
                       AIR SEA DIR/SP/G            HT/PER HT/PER/DIR
                 (UTC) (F)     (DEG/KT/KT) (MB)    (FT/S) (FT/S/D)
UPR LAKE MARION  NOT AVBL
WINYAH BAY       2345   40     360/  3     1016.0
LAKE MURRAY      0000   43      CALM  /  3 1016.9R
ACE BASIN NERRS  NOT AVBL
FORT PULASKI     0000   47 49  330/  6/  9 1017.8R
SAPELO ISLAND    0000   47     340/  8     1017.0R

$$

ANZ835-935-AMZ111-154-330-350-352-354-370-450-454-472-270200-
...C-MAN AND BUOY OBSERVATIONS...

STATION/POSITION TIME  TEMP    WIND        PRES    WAVE   SWELL
                       AIR SEA DIR/SP/G            HT/PER HT/PER/DIR
                 (UTC) (F)     (DEG/KT/KT) (MB)    (FT/S) (FT/S/D)
BUOY 41004       0050   45 66  350/ 14/ 17 1017.7R   4/10   3/10
BUOY 41008       0050   49 52  340/ 10/ 12 1018.1R   2/11   2/ 90/11
FOLLY BEACH CMAN 0100   42     340/  7/ 10 1019.7R
CAPERS NEARSHORE NOT AVBL
FRIPP NEARSHORE  0000   45      30/ 14/ 16 1017.2R


STATION/POSITION TIME  TEMP    WIND        PRES    WAVE   SWELL
                       AIR SEA DIR/SP/G            HT/PER HT/PER/DIR
                 (UTC) (F)     (DEG/KT/KT) (MB)    (FT/S) (FT/S/D)
5E ST. MARYS GA  0021      54                N/A     3/11   2/110/11
FRYING PAN BUOY  0050   43 58  350/ 16/ 21 1018.0R   8/10   7/170/10
BUOY 41025       NOT AVBL
CAPE LOOKOUT NC  0000   37     340/ 17/ 21 1015.9R
BUOY 41002       0050   63 70  300/ 16/ 17 1014.4R  13/10  11/230/10
BUOY 41010       0020   67 74  340/ 12/ 14 1014.7R
ST AUGUSTINE FL  0100   52      20/ 16/ 18 1017.9R


$$


USA.gov is the U.S. government's official web portal to all federal, state and local government web resources and services.